timestamp,surface_pressure_avg,surface_temp_avg,battery_voltage,lat,long
2019-08-14 00:00:00+00:00,347.528,19.3,12.97,47.84626,-54.09684
2019-08-14 00:10:00+00:00,344.418,19.29,12.89,47.84626,-54.09684
2019-08-14 00:20:00+00:00,343.8712,19.28,12.97,47.84626,-54.09684
2019-08-14 00:30:00+00:00,338.9913,19.29,12.97,47.84626,-54.09684
2019-08-14 00:40:00+00:00,335.8014,19.3,12.97,47.84626,-54.09684
2019-08-14 00:50:00+00:00,331.5897,19.3,12.97,47.84626,-54.09684
2019-08-14 01:00:00+00:00,326.9013,19.3,12.89,47.84626,-54.09684
2019-08-14 01:10:00+00:00,316.2896,19.28,12.81,47.84626,-54.09684
2019-08-14 01:20:00+00:00,311.188,19.2,12.97,47.84626,-54.09684
2019-08-14 01:30:00+00:00,301.5863,19.21,12.97,47.84626,-54.09684
2019-08-14 01:40:00+00:00,292.3113,19.2,12.97,47.84626,-54.09684
2019-08-14 01:50:00+00:00,283.7447,19.2,12.97,47.84626,-54.09684
2019-08-14 02:00:00+00:00,280.9681,19.2,12.89,47.84626,-54.09684
2019-08-14 02:10:00+00:00,276.618,19.2,12.81,47.84626,-54.09684
2019-08-14 02:20:00+00:00,267.5981,19.21,12.89,47.84626,-54.09684
2019-08-14 02:30:00+00:00,260.4381,19.26,12.97,47.84626,-54.09684
2019-08-14 02:40:00+00:00,256.4498,19.28,12.97,47.84626,-54.09684
2019-08-14 02:50:00+00:00,253.3614,19.29,12.97,47.84626,-54.09684
2019-08-14 03:00:00+00:00,244.2331,19.28,12.89,47.84626,-54.09684
2019-08-14 03:10:00+00:00,237.2764,19.24,12.81,47.84626,-54.09684
2019-08-14 03:20:00+00:00,233.2547,19.24,12.89,47.84626,-54.09684
2019-08-14 03:30:00+00:00,232.3498,19.23,12.89,47.84626,-54.09684
2019-08-14 03:40:00+00:00,227.6981,19.22,12.97,47.84626,-54.09684
2019-08-14 03:50:00+00:00,226.1165,19.21,12.97,47.84626,-54.09684
2019-08-14 04:00:00+00:00,222.7014,19.2,12.89,47.84626,-54.09684
2019-08-14 04:10:00+00:00,219.8631,19.2,12.81,47.84626,-54.09684
2019-08-14 04:20:00+00:00,218.8314,19.2,12.89,47.84626,-54.09684
2019-08-14 04:30:00+00:00,217.5648,19.2,12.89,47.84626,-54.09684
2019-08-14 04:40:00+00:00,216.0114,19.2,12.97,47.84626,-54.09684
2019-08-14 04:50:00+00:00,215.4564,19.2,12.97,47.84626,-54.09684
2019-08-14 05:00:00+00:00,213.1515,19.2,12.89,47.84626,-54.09684
2019-08-14 05:10:00+00:00,210.5381,19.2,12.81,47.84626,-54.09684
2019-08-14 05:20:00+00:00,210.2615,19.2,12.89,47.84626,-54.09684
2019-08-14 05:30:00+00:00,211.2481,19.2,12.89,47.84626,-54.09684
2019-08-14 05:40:00+00:00,210.3748,19.2,12.89,47.84626,-54.09684
2019-08-14 05:50:00+00:00,210.3831,19.2,12.89,47.84626,-54.09684
2019-08-14 06:00:00+00:00,213.1681,19.2,12.81,47.84626,-54.09684
2019-08-14 06:10:00+00:00,217.2931,19.2,12.81,47.84626,-54.09684
2019-08-14 06:20:00+00:00,216.1714,19.2,12.89,47.84626,-54.09684
2019-08-14 06:30:00+00:00,218.4531,19.2,12.89,47.84626,-54.09684
2019-08-14 06:40:00+00:00,225.1831,19.2,12.89,47.84626,-54.09684
2019-08-14 06:50:00+00:00,227.8847,19.2,12.89,47.84626,-54.09684
2019-08-14 07:00:00+00:00,228.3148,19.2,12.81,47.84626,-54.09684
2019-08-14 07:10:00+00:00,232.1264,19.2,12.73,47.84626,-54.09684
2019-08-14 07:20:00+00:00,240.3081,19.2,12.81,47.84626,-54.09684
2019-08-14 07:30:00+00:00,244.5681,19.2,12.81,47.84626,-54.09684
2019-08-14 07:40:00+00:00,245.9431,19.19,12.89,47.84626,-54.09684
2019-08-14 07:50:00+00:00,247.1681,19.19,12.89,47.84626,-54.09684
2019-08-14 08:00:00+00:00,254.9998,19.17,12.81,47.84626,-54.09684
2019-08-14 08:10:00+00:00,259.8381,19.15,12.73,47.84626,-54.09684
2019-08-14 08:20:00+00:00,264.7747,19.12,12.81,47.84626,-54.09684
2019-08-14 08:30:00+00:00,272.8698,19.12,12.81,47.84626,-54.09684
2019-08-14 08:40:00+00:00,281.1214,19.15,12.81,47.84626,-54.09684
2019-08-14 08:50:00+00:00,284.758,19.17,12.81,47.84626,-54.09684
2019-08-14 09:00:00+00:00,290.6814,19.19,12.81,47.84626,-54.09684
2019-08-14 09:10:00+00:00,297.598,19.19,12.81,47.84626,-54.09684
2019-08-14 09:20:00+00:00,302.6847,19.19,12.89,47.84626,-54.09684
2019-08-14 09:30:00+00:00,303.923,19.19,12.97,47.84626,-54.09684
2019-08-14 09:40:00+00:00,310.2095,19.19,13.13,47.84626,-54.09684
2019-08-14 09:50:00+00:00,314.103,19.2,13.37,47.84626,-54.09684
2019-08-14 10:00:00+00:00,320.623,19.2,13.44,47.84626,-54.09684
2019-08-14 10:10:00+00:00,320.718,19.2,13.53,47.84626,-54.09684
2019-08-14 10:20:00+00:00,324.1663,19.2,13.76,47.84626,-54.09684
2019-08-14 10:30:00+00:00,326.4347,19.12,13.84,47.84626,-54.09684
2019-08-14 10:40:00+00:00,328.1046,19.1,14.0,47.84626,-54.09684
2019-08-14 10:50:00+00:00,326.8413,19.1,14.24,47.84626,-54.09684
2019-08-14 11:00:00+00:00,327.6263,19.1,14.32,47.84626,-54.09684
2019-08-14 11:10:00+00:00,329.5913,19.12,14.32,47.84626,-54.09684
2019-08-14 11:20:00+00:00,326.5363,19.17,14.56,47.84626,-54.09684
2019-08-14 11:30:00+00:00,325.1563,19.2,14.56,47.84626,-54.09684
2019-08-14 11:40:00+00:00,331.4563,19.2,14.64,47.84626,-54.09684
2019-08-14 11:50:00+00:00,331.9329,19.2,14.64,47.84626,-54.09684
2019-08-14 12:00:00+00:00,325.4496,19.2,14.56,47.84626,-54.09684
2019-08-14 12:10:00+00:00,321.2697,19.2,14.48,47.84626,-54.09684
2019-08-14 12:20:00+00:00,323.3297,19.2,14.64,47.84626,-54.09684
2019-08-14 12:30:00+00:00,319.893,19.2,14.56,47.84626,-54.09684
2019-08-14 12:40:00+00:00,313.2213,19.2,14.56,47.84626,-54.09684
2019-08-14 12:50:00+00:00,308.9647,19.2,14.56,47.84626,-54.09684
2019-08-14 13:00:00+00:00,306.0314,19.2,14.48,47.84626,-54.09684
2019-08-14 13:10:00+00:00,300.5347,19.2,14.48,47.84626,-54.09684
2019-08-14 13:20:00+00:00,298.8413,19.2,14.56,47.84626,-54.09684
2019-08-14 13:30:00+00:00,294.2313,19.2,14.56,47.84626,-54.09684
2019-08-14 13:40:00+00:00,285.4597,19.3,14.56,47.84626,-54.09684
2019-08-14 13:50:00+00:00,276.7448,19.49,14.56,47.84626,-54.09684
2019-08-14 14:00:00+00:00,272.4197,19.5,14.48,47.84626,-54.09684
2019-08-14 14:10:00+00:00,266.1231,19.3,14.4,47.84626,-54.09684
2019-08-14 14:20:00+00:00,256.5348,19.3,14.48,47.84626,-54.09684
2019-08-14 14:30:00+00:00,247.8414,19.3,14.48,47.84626,-54.09684
2019-08-14 14:40:00+00:00,242.7631,19.3,14.48,47.84626,-54.09684
2019-08-14 14:50:00+00:00,236.8481,19.3,14.4,47.84626,-54.09684
2019-08-14 15:00:00+00:00,230.3781,19.3,14.4,47.84626,-54.09684
2019-08-14 15:10:00+00:00,223.9148,19.27,14.32,47.84626,-54.09684
2019-08-14 15:20:00+00:00,218.7581,19.27,14.4,47.84626,-54.09684
2019-08-14 15:30:00+00:00,212.3631,19.26,14.4,47.84626,-54.09684
2019-08-14 15:40:00+00:00,208.1331,19.23,14.32,47.84626,-54.09684
2019-08-14 15:50:00+00:00,205.0898,19.2,14.32,47.84626,-54.09684
2019-08-14 16:00:00+00:00,201.6465,19.2,14.24,47.84626,-54.09684
2019-08-14 16:10:00+00:00,197.3181,19.2,14.0,47.84626,-54.09684
2019-08-14 16:20:00+00:00,195.7731,19.2,14.24,47.84626,-54.09684
2019-08-14 16:30:00+00:00,198.6414,19.2,14.32,47.84626,-54.09684
2019-08-14 16:40:00+00:00,195.3948,19.19,14.32,47.84626,-54.09684
2019-08-14 16:50:00+00:00,192.7481,19.2,14.24,47.84626,-54.09684
2019-08-14 17:00:00+00:00,196.2382,19.2,14.08,47.84626,-54.09684
2019-08-14 17:10:00+00:00,195.9348,19.19,14.08,47.84626,-54.09684
2019-08-14 17:20:00+00:00,198.3431,19.2,14.24,47.84626,-54.09684
2019-08-14 17:30:00+00:00,203.3698,19.2,14.24,47.84626,-54.09684
2019-08-14 17:40:00+00:00,205.2181,19.2,14.08,47.84626,-54.09684
2019-08-14 17:50:00+00:00,205.3048,19.21,14.08,47.84626,-54.09684
2019-08-14 18:00:00+00:00,210.3797,19.26,14.0,47.84626,-54.09684
2019-08-14 18:10:00+00:00,217.0964,19.25,14.0,47.84626,-54.09684
2019-08-14 18:20:00+00:00,217.8031,19.22,14.0,47.84626,-54.09684
2019-08-14 18:30:00+00:00,222.7481,19.24,14.0,47.84626,-54.09684
2019-08-14 18:40:00+00:00,230.8514,19.28,14.0,47.84626,-54.09684
2019-08-14 18:50:00+00:00,236.278,19.3,14.0,47.84626,-54.09684
2019-08-14 19:00:00+00:00,239.8847,19.3,13.92,47.84626,-54.09684
2019-08-14 19:10:00+00:00,243.7115,19.3,13.76,47.84626,-54.09684
2019-08-14 19:20:00+00:00,247.0448,19.28,13.84,47.84626,-54.09684
2019-08-14 19:30:00+00:00,252.7964,19.2,13.92,47.84626,-54.09684
2019-08-14 19:40:00+00:00,256.1747,19.2,13.92,47.84626,-54.09684
2019-08-14 19:50:00+00:00,261.2281,19.2,13.84,47.84626,-54.09684
2019-08-14 20:00:00+00:00,272.0014,19.2,13.84,47.84626,-54.09684
2019-08-14 20:10:00+00:00,283.1714,19.17,13.68,47.84626,-54.09684
2019-08-14 20:20:00+00:00,285.6147,19.28,13.76,47.84626,-54.09684
2019-08-14 20:30:00+00:00,290.5364,18.84,13.76,47.84626,-54.09684
2019-08-14 20:40:00+00:00,296.4847,18.64,13.76,47.84626,-54.09684
2019-08-14 20:50:00+00:00,300.8913,18.8,13.76,47.84626,-54.09684
2019-08-14 21:00:00+00:00,302.933,18.6,13.68,47.84626,-54.09684
2019-08-14 21:10:00+00:00,313.6562,18.5,13.6,47.84626,-54.09684
2019-08-14 21:20:00+00:00,322.2596,18.7,13.6,47.84626,-54.09684
2019-08-14 21:30:00+00:00,326.9797,18.4,13.6,47.84626,-54.09684
2019-08-14 21:40:00+00:00,333.5213,18.3,13.6,47.84626,-54.09684
2019-08-14 21:50:00+00:00,341.8313,18.3,13.6,47.84626,-54.09684
2019-08-14 22:00:00+00:00,346.2697,18.3,13.53,47.84626,-54.09684
2019-08-14 22:10:00+00:00,350.148,18.06,13.37,47.84626,-54.09684
2019-08-14 22:20:00+00:00,355.2729,18.1,13.37,47.84626,-54.09684
2019-08-14 22:30:00+00:00,361.078,18.2,13.29,47.84626,-54.09684
2019-08-14 22:40:00+00:00,360.0895,18.08,13.29,47.84626,-54.09684
2019-08-14 22:50:00+00:00,362.1996,18.0,13.29,47.84626,-54.09684
2019-08-14 23:00:00+00:00,365.6162,18.01,13.13,47.84626,-54.09684
2019-08-14 23:10:00+00:00,367.0713,18.0,13.05,47.84626,-54.09684
2019-08-14 23:20:00+00:00,366.9096,18.0,13.05,47.84626,-54.09684
2019-08-14 23:30:00+00:00,369.6512,17.99,13.05,47.84626,-54.09684
2019-08-14 23:40:00+00:00,370.0762,18.04,13.05,47.84626,-54.09684
2019-08-14 23:50:00+00:00,365.088,18.0,13.05,47.84626,-54.09684
